Content
SEND FEEDBACK

Daily
Averages
Monthly
Summary
Spain

SANTA CRUZ DE TENERIFE, SPAIN


Home > Europe > Spain
Elevation: 151 feet     Latitude: 28 27N     Longitude: 016 15W

WEATHER
 
SELECT A DAY
Number of Records: 212,311;   Date Range: 7/1/96 - 12/17/14
 
SHARE

PRINT THIS DATA

[ ← Previous Day ]
WEATHER ALMANAC - JULY 22, 2014
[ Next Day → ]
[ °C ]   °F
Weather ElementAverageHighLow
Temperature64.5 °F68 °F (5:00 pm)62 °F (7:00 am)
Dewpoint63.3 °F65 °F (4:00 pm)62 °F (7:00 am)
Humidity96 %100 % (7:00 am)83 % (5:00 pm)
Barometer30.14 in30.18 in (9:00 am)30.06 in (7:00 pm)
Wind Speed20.8 mph26.5 mph (8:00 pm)
Wind Gust36.8 mph (7:00 pm)
Weather ElementAverage
Visibility3.6 mi
Wind DirectionWNW (306.4 °)

Weather ElementTotal
Precipitation---
Growing Degree Days15 (Base 50)
Averaged from 42 records on July 22, 2014
WEATHER CONDITIONS BREAKOUT
WIND DIRECTION BREAKOUT
WEATHER BY HOUR - JULY 22, 2014
[ °C ]   °F
Local TimeTemperatureDewpointHumidityBarometerVisibilityWind DirectionWind SpeedGust SpeedPrecipitationEventsConditions
7:00 AM62.0 °F62.0 °F99 %30.10 in1.0 miNW (310°)17.3 mphRainDrizzle
7:00 AM62.6 °F62.6 °F100 %30.15 in6.2 miNW (320°)16.1 mphDrizzle
7:30 AM62.6 °F62.6 °F100 %30.15 in0.3 miNW (310°)17.3 mphFogFog
8:00 AM62.6 °F62.6 °F100 %30.15 in1.9 miNW (310°)16.1 mphFogPatches of Fog
8:30 AM62.6 °F62.6 °F100 %30.15 in3.1 miNW (310°)16.1 mphMostly Cloudy
9:00 AM62.6 °F62.6 °F100 %30.18 in0.9 miWNW (300°)18.4 mphFogPatches of Fog
9:17 AM62.6 °F62.6 °F100 %30.18 in0.1 miNW (310°)16.1 mphFogFog
9:30 AM62.6 °F62.6 °F100 %30.18 in1.9 miNW (320°)19.6 mphMostly Cloudy
10:00 AM63.0 °F63.0 °F100 %30.12 in1.0 miNW (310°)19.6 mphFogLight Fog
10:00 AM62.6 °F62.6 °F100 %30.15 in6.2 miNW (310°)18.4 mphMostly Cloudy
10:30 AM62.6 °F62.6 °F100 %30.15 in6.2 miNW (310°)18.4 mphLight Drizzle
11:00 AM62.6 °F62.6 °F100 %30.15 in0.9 miNW (310°)21.9 mphFogPatches of Fog
11:30 AM62.6 °F62.6 °F100 %30.15 in0.3 miNW (310°)20.7 mphFogFog
11:46 AM64.4 °F64.4 °F100 %30.15 in5.6 miNW (310°)20.7 mphLight Drizzle
12:00 PM64.4 °F64.4 °F100 %30.15 in6.2 miNW (310°)19.6 mphMostly Cloudy
12:30 PM66.2 °F62.6 °F88 %30.15 in6.2 miWNW (300°)20.7 mphMostly Cloudy
1:00 PM66.2 °F62.6 °F88 %30.15 in3.1 miWNW (300°)20.7 mphLight Drizzle
1:00 PM65.0 °F62.0 °F88 %30.10 in3.0 miWNW (300°)21.9 mphRainLight Drizzle
1:30 PM64.4 °F64.4 °F100 %30.15 in1.9 miNW (310°)20.7 mphDrizzle
2:00 PM64.4 °F64.4 °F100 %30.15 in1.6 miWNW (300°)23.0 mphDrizzle
2:17 PM64.4 °F64.4 °F100 %30.15 in5.0 miNW (310°)20.7 mphDrizzle
2:30 PM64.4 °F64.4 °F100 %30.15 in5.0 miNW (310°)19.6 mph33.4 mphDrizzle
3:00 PM64.4 °F64.4 °F100 %30.15 in5.0 miNW (310°)18.4 mphDrizzle
3:30 PM66.2 °F64.4 °F94 %30.15 in2.8 miNW (310°)19.6 mphDrizzle
4:00 PM66.0 °F65.0 °F94 %30.09 in0.0 miWNW (300°)19.6 mphFogPartial Fog
4:00 PM64.4 °F64.4 °F100 %30.15 in5.0 miNW (310°)21.9 mphMostly Cloudy
4:30 PM66.2 °F62.6 °F88 %30.15 in6.2 miNW (310°)19.6 mphMostly Cloudy
5:00 PM68.0 °F62.6 °F83 %30.12 in6.2 miNW (310°)18.4 mphMostly Cloudy
5:30 PM68.0 °F62.6 °F83 %30.12 in6.2 miNW (310°)19.6 mphMostly Cloudy
6:30 PM68.0 °F62.6 °F83 %30.12 in6.2 miWNW (300°)24.2 mphMostly Cloudy
7:00 PM66.0 °F62.0 °F85 %30.06 in19.0 miWNW (300°)25.3 mphMostly Cloudy
7:00 PM66.2 °F62.6 °F88 %30.12 in6.2 miWNW (300°)24.2 mph36.8 mphMostly Cloudy
7:30 PM66.2 °F62.6 °F88 %30.12 in6.2 miWNW (300°)23.0 mph34.5 mphMostly Cloudy
8:00 PM66.2 °F62.6 °F88 %30.12 in5.6 miWNW (300°)26.5 mphFogFog
8:30 PM64.4 °F62.6 °F94 %30.12 in3.1 miWNW (300°)25.3 mphDrizzle
8:37 PM64.4 °F64.4 °F100 %30.12 in0.6 miNW (310°)24.2 mphFogDrizzle
9:00 PM64.4 °F64.4 °F100 %30.12 in1.9 miWNW (290°)21.9 mphFogDrizzle
9:30 PM64.4 °F64.4 °F100 %30.12 in1.9 miWNW (300°)24.2 mphFogDrizzle
10:00 PM64.4 °F64.4 °F100 %30.15 in0.9 miNW (310°)21.9 mphFogDrizzle
10:30 PM64.4 °F64.4 °F100 %30.15 in0.3 miNW (310°)24.2 mphFogDrizzle
11:00 PM64.4 °F64.4 °F100 %30.15 in0.7 miWNW (300°)24.2 mphFogDrizzle
11:30 PM64.4 °F64.4 °F100 %30.15 in1.2 miWNW (300°)24.2 mphFogDrizzle
Hourly data recorded from GCXO, located miles away from Santa Cruz de Tenerife, Spain







STORIES FROM OUR PARTNERS